User: anonymous   Login
Location: Vancouver
(49.2500°N, 123.1330°W)
Time: 14:03:37
(UTC-08:00)
Language:

ERS-2 - Orbit

View from above orbital plane
View from above orbital plane
View from above satellite
View from above satellite

Ground track
Ground track

The orbit data is extracted from the following two-line orbital elements,

1 23560U 95021A   17328.49538814  .00001846  00000-0  86508-4 0  9996
2 23560  98.5576 342.4995 0004765 113.0840 247.0895 15.21276357199758
Epoch (UTC): 24 November 2017 11:53:21
Eccentricity: 0.0004765
inclination: 98.5576°
perigee height: 499 km
apogee height: 505 km
right ascension of ascending node: 342.4995°
argument of perigee: 113.0840°
revolutions per day: 15.21276357
mean anomaly at epoch: 247.0895°
orbit number at epoch: 19975

The dashed part of the orbit path shows where the satellite is in the earth's shadow,  

DLR